SCP
1 1 1 1 1 1 1 1 0 0 0 0 0 0 0 0 0 0 1 1 1 1 1 1 1 0 0 0 0 0 0 0 0 0 0 0 0 0 0 0 0 0 0
1 1 1 1 1 1 1 1 1 1 0 0 0 0 0 0 0 1 1 1 1 1 1 1 1 1 1 0 0 0 0 0 0 0 0 0 0 0 0 0 0 0 0
1 1 1 1 1 1 1 1 1 1 1 1 1 1 1 1 1 1 1 1 1 1 1 1 1 1 1 1 1 0 0 0 0 0 0 0 0 0 0 0 0 0 0
1 1 1 1 1 1 1 1 1 1 1 1 1 1 1 1 1 1 1 1 1 1 1 1 1 1 1 1 1 0 0 0 0 0 0 0 0 0 0 0 0 0 0
1 1 1 1 1 1 1 1 1 1 1 1 1 1 1 1 1 1 1 1 1 1 1 1 1 1 1 1 1 0 0 0 0 0 0 0 0 0 0 0 0 0 0
1 1 1 1 1 1 1 1 1 1 1 1 1 1 1 1 1 1 1 1 1 1 0 0 0 0 0 1 1 0 0 0 0 0 0 0 0 0 0 0 0 0 0
1 1 1 1 1 1 1 1 1 1 1 1 1 1 1 1 0 0 0 0 0 0 0 0 0 0 0 0 0 0 0 0 0 0 0 0 0 0 0 0 0 0 0
1 1 1 1 1 1 1 1 1 1 1 1 1 0 0 0 0 0 0 0 0 0 0 0 0 0 0 0 0 0 0 0 0 0 0 0 0 0 0 0 0 0 0
1 1 1 1 1 1 1 1 1 1 1 0 0 0 0 0 0 0 0 0 0 0 0 0 0 0 0 0 0 0 0 0 0 0 0 0 0 0 0 0 0 0 0
1 1 1 1 1 1 1 1 1 1 0 0 0 0 0 0 0 0 0 0 0 0 0 0 0 0 0 0 0 0 0 0 0 0 0 0 0 0 0 0 0 0 0
1 1 1 1 1 1 1 1 1 0 0 0 0 0 0 0 0 0 0 0 0 0 0 0 0 0 0 0 0 0 0 0 0 0 0 0 0 0 0 0 0 0 0
1 1 0 0 0 0 0 0 0 0 0 0 0 0 0 0 0 0 0 0 0 0 0 0 0 0 0 0 0 0 0 0 0 0 0 0 0 0 0 0 0 0 0
0 0 0 0 0 0 0 0 0 0 0 0 0 0 0 0 0 0 0 0 0 0 0 0 0 0 0 0 0 0 0 0 0 0 0 0 0 0 0 0 0 0 0
0 0 0 0 0 0 0 0 0 0 0 0 0 0 0 0 0 0 0 0 0 0 0 0 0 0 0 0 0 0 0 0 0 0 0 0 0 0 0 0 0 0 0
0 0 0 0 0 0 0 0 0 0 0 0 0 0 0 0 0 0 0 0 0 0 0 0 0 0 0 0 0 0 0 0 0 0 0 0 0 0 0 0 0 0 0
0 0 0 0 0 0 0 0 0 0 0 0 0 0 0 0 0 0 0 0 0 0 0 0 0 0 0 0 0 0 0 0 0 0 0 0 0 0 0 0 0 0 0
0 0 0 0 0 0 0 0 0 0 0 0 0 0 0 0 0 0 0 0 0 0 0 0 0 0 0 0 0 0 0 0 0 0 0 0 0 0 0 0 0 0 0
0 0 0 0 0 0 0 0 0 0 0 0 0 0 0 0 0 0 0 0 0 0 0 0 0 0 0 0 0 0 0 0 0 0 0 0 0 0 0 0 0 0 0
0 0 0 0 0 0 0 0 0 0 0 0 0 0 0 0 0 0 0 0 0 0 0 0 0 0 0 0 0 0 0 0 0 0 0 0 0 0 0 -0 0 0 0
0 0 0 0 0 0 0 0 0 0 0 0 0 0 0 0 0 0 0 0 0 0 0 0 0 0 0 0 0 0 0 0 0 0 0 0 0 0 0 -0 -0 0 0
0 0 0 0 0 0 0 0 0 0 0 0 0 0 0 0 0 0 0 0 0 0 0 0 0 0 0 0 0 0 0 0 0 0 0 0 0 0 0 0 0 0 0
0 0 0 0 0 0 0 0 0 0 0 0 0 0 0 0 0 0 0 0 0 0 0 0 0 0 0 0 0 0 0 0 0 0 0 0 0 0 0 0 0 0 0
0 0 0 0 0 0 0 0 0 0 0 0 0 0 0 0 0 0 0 0 0 0 0 0 0 0 0 0 0 0 0 0 0 0 0 0 0 0 0 0 0 0 0
0 0 0 0 0 0 0 0 0 0 0 0 0 0 0 0 0 0 0 0 0 0 0 0 0 0 0 0 0 0 0 0 0 0 0 0 0 0 0 0 0 0 0
0 0 0 0 0 0 0 0 0 0 0 0 0 0 0 0 0 0 0 0 0 0 0 0 0 0 0 0 0 0 0 0 0 0 0 0 0 0 0 0 0 0 0
0 0 0 0 0 0 0 0 0 0 0 0 0 0 0 0 0 0 0 0 0 0 0 0 0 0 0 0 0 0 0 0 0 0 0 0 0 0 0 0 0 0 0
Wind_Speed
1 1 1 2 3 3 4 4 5 5 5 5 4 4 3 2 1 2 4 11 13 13 13 14 13 12 11 10 10 9 8 8 8 7 7 6 6 6 6 6 6 6 6
0 2 1 1 2 2 2 3 4 4 4 3 3 3 2 2 0 2 4 7 9 10 11 13 13 12 12 11 11 10 10 9 9 8 8 7 7 7 6 6 6 6 6
0 1 1 1 2 2 2 2 4 3 3 3 3 2 2 2 1 1 3 3 4 6 9 10 11 12 12 12 12 11 11 10 10 9 8 8 8 8 7 7 7 6 6
1 1 1 2 2 2 2 3 3 2 2 2 2 1 1 1 2 1 2 3 3 4 6 9 10 11 12 12 12 12 11 11 10 10 9 9 9 8 8 8 7 7 7
2 1 1 2 2 1 2 3 2 2 3 3 2 2 2 2 2 2 1 2 3 4 4 7 10 10 11 12 12 12 12 12 11 11 10 10 9 9 9 8 8 8 7
2 2 1 2 2 1 1 1 2 3 3 3 2 2 1 1 1 1 1 1 3 3 3 4 4 6 9 11 12 13 13 12 12 11 11 10 10 9 9 9 8 8 8
3 2 2 2 1 1 1 1 2 3 3 2 2 1 1 0 0 0 0 1 2 3 3 4 4 3 4 8 10 11 12 11 11 11 11 10 10 10 9 9 8 8 8
4 3 3 2 2 1 2 1 2 2 2 2 2 2 2 1 0 0 0 1 2 2 3 3 5 5 4 3 7 11 10 10 10 10 10 10 9 9 9 9 9 9 9
3 4 4 3 3 2 2 2 2 3 3 3 2 2 3 3 2 1 1 1 2 3 3 3 4 5 6 5 5 8 10 9 9 10 10 10 10 10 10 10 10 9 9
4 4 4 4 3 3 2 2 1 2 3 3 2 2 2 1 3 2 1 2 3 4 4 4 4 5 6 5 7 11 11 9 9 9 10 10 11 10 10 9 9 8 8
4 5 5 4 4 3 3 3 3 2 2 2 2 2 2 1 2 2 3 2 3 3 3 4 4 5 6 6 5 9 12 10 9 9 9 9 10 10 9 9 8 7 7
4 6 6 5 4 3 3 3 2 2 1 2 1 1 1 2 2 2 3 3 3 3 4 4 4 4 5 5 8 13 12 11 10 9 9 9 9 9 9 8 8 7 7
4 6 6 5 5 4 4 3 2 2 2 1 1 0 1 1 1 2 4 4 3 3 3 4 3 4 5 4 6 12 11 10 10 9 8 8 8 8 7 7 7 6 6
4 5 5 5 6 5 4 4 3 3 2 2 3 2 1 1 1 2 4 5 4 3 3 3 3 3 4 4 7 9 7 10 9 8 8 7 7 7 7 7 7 7 6
4 6 5 5 6 5 5 4 3 4 4 3 3 3 3 2 2 2 3 4 5 5 4 3 2 3 4 4 6 4 4 8 9 8 8 7 7 6 6 6 6 6 5
5 5 6 6 6 6 6 5 4 4 5 4 3 4 4 3 2 2 2 2 2 4 4 3 3 4 5 5 6 4 4 9 9 8 8 7 6 6 6 6 5 5 5
6 6 6 6 6 7 7 6 6 6 6 5 5 5 5 4 3 2 3 3 3 4 6 5 4 5 5 5 4 3 4 4 5 8 8 7 7 6 6 6 6 6 5
6 6 6 7 7 7 7 7 7 7 7 7 7 6 6 5 5 4 4 5 4 4 7 8 5 4 4 4 4 4 4 5 5 8 9 8 7 7 7 7 7 7 6
6 6 6 7 7 7 7 7 7 7 7 7 7 7 7 6 6 5 5 5 4 5 5 7 5 3 3 3 4 3 3 3 5 8 9 9 9 9 8 8 8 7 7
6 6 6 7 7 9 9 8 7 7 8 8 7 8 8 7 6 5 6 6 6 6 6 6 6 4 3 3 3 3 2 2 3 5 7 8 9 10 10 9 9 9 8
6 6 7 7 7 8 9 9 7 8 7 7 8 8 9 11 11 7 6 5 5 5 4 5 5 4 3 3 3 2 3 3 2 2 3 4 4 4 5 7 9 10 10
6 7 8 8 9 9 12 13 10 7 7 7 7 6 8 9 11 12 13 10 7 5 4 3 3 4 4 3 2 2 2 2 1 1 1 2 4 4 5 5 9 12 12
6 7 7 8 8 10 13 13 12 6 7 7 7 7 8 10 9 7 9 10 10 10 8 5 5 4 4 2 2 2 2 2 1 1 1 1 2 3 4 6 12 13 12
5 5 6 6 6 9 13 12 10 6 6 7 8 8 8 8 9 7 7 8 8 8 7 6 5 5 4 3 2 1 1 1 1 1 1 1 1 2 2 3 10 12 12
4 5 5 5 6 7 12 12 9 4 5 7 8 9 8 8 12 10 7 7 6 5 7 8 7 5 5 4 3 2 2 1 0 0 0 0 1 1 1 3 6 12 12
4 5 5 5 6 6 10 13 10 4 4 5 5 7 11 10 11 11 6 6 5 4 3 3 2 1 2 2 1 1 1 1 1 1 1 1 0 0 1 2 3 5 6
Wind_Direction
288 276 222 184 203 203 204 212 216 221 231 241 234 235 248 269 330 122 149 169 172 174 177 177 177 179 180 178 174 170 166 160 153 147 142 139 135 131 126 123 120 116 111
336 300 278 238 243 230 219 221 228 221 225 240 249 252 258 270 284 140 150 171 172 177 179 178 180 180 180 177 173 170 165 161 156 152 148 143 139 135 130 125 121 117 113
342 285 284 249 258 245 236 230 236 231 223 227 239 265 278 290 285 165 152 159 159 181 188 181 179 180 179 177 174 171 167 162 158 155 151 146 142 137 133 129 124 119 114
337 285 285 267 258 245 226 229 228 220 231 230 223 243 281 294 274 246 169 167 165 175 189 185 180 178 175 175 173 170 166 161 157 153 149 144 139 135 130 126 122 118 114
339 315 289 291 288 277 261 251 227 219 222 223 213 211 224 242 249 245 208 178 163 161 171 179 179 174 173 171 169 167 164 159 153 148 145 141 137 132 128 125 120 115 110
350 341 287 298 300 292 282 273 259 244 227 213 223 225 208 214 232 230 214 192 149 154 162 162 156 160 163 164 163 164 163 159 154 151 149 144 139 135 131 128 124 118 111
4 352 322 321 320 295 275 272 252 255 241 195 179 217 218 126 108 73 179 161 145 151 145 144 132 124 140 146 151 156 157 154 152 153 150 145 142 139 136 133 128 120 112
357 346 346 329 321 289 272 255 246 248 244 210 187 185 196 183 137 310 88 129 125 120 123 131 123 127 127 128 138 138 136 143 146 147 145 141 139 139 138 136 130 122 115
8 1 350 339 324 309 298 272 249 232 240 233 202 186 190 193 155 109 52 81 101 115 116 107 117 124 125 120 125 125 127 130 139 142 141 138 136 137 139 136 128 123 118
13 5 355 349 338 331 320 295 275 253 233 235 221 212 218 164 161 151 98 64 68 78 96 105 103 99 105 110 113 118 118 123 132 136 140 142 141 138 136 132 128 124 119
19 14 6 357 347 342 337 333 330 299 259 241 223 200 197 210 164 156 153 124 75 52 63 86 94 99 103 105 112 117 116 113 114 122 133 143 143 139 138 132 128 125 122
24 21 13 5 358 355 348 344 337 327 305 277 254 202 176 184 180 164 154 142 115 75 56 59 81 95 103 109 120 122 121 120 115 116 121 124 128 131 130 129 128 126 123
26 17 14 6 1 359 358 351 348 348 350 340 326 255 200 215 177 148 133 131 116 99 74 56 60 86 101 100 115 123 124 124 117 117 118 122 126 128 127 126 124 121 116
25 17 13 10 5 2 5 3 8 5 19 25 31 35 64 69 99 127 135 139 130 120 99 94 68 80 99 102 110 115 119 124 122 123 122 124 126 129 130 127 126 122 120
23 23 19 15 11 10 14 18 26 23 24 34 43 47 57 62 86 101 127 145 144 143 134 135 118 104 106 105 122 118 122 138 138 136 137 140 140 138 138 139 138 134 129
26 24 23 23 22 19 21 28 38 35 40 34 42 50 51 56 76 95 121 119 121 131 129 134 127 140 133 132 143 145 153 157 159 158 157 156 158 159 158 155 152 153 157
27 33 31 30 28 26 26 30 40 41 43 39 40 53 56 57 71 81 93 97 97 108 121 115 111 130 131 139 147 166 166 167 169 173 172 171 174 175 175 174 180 185 186
29 35 37 36 40 39 33 35 41 45 46 45 43 47 51 59 67 76 84 92 96 101 123 126 128 135 142 157 161 174 173 173 168 173 177 179 181 185 190 194 197 198 199
37 39 43 43 41 41 42 43 46 50 50 50 51 53 53 57 61 69 81 87 94 105 110 122 127 131 143 167 167 181 176 163 172 170 178 189 196 200 203 205 204 204 206
45 44 47 49 47 43 39 38 44 53 54 54 57 59 56 56 60 68 82 88 98 103 113 122 132 143 153 171 164 170 167 173 172 169 181 188 200 205 209 210 210 210 211
54 52 53 52 51 48 36 30 33 53 55 60 63 66 67 69 65 66 80 89 100 107 117 127 136 141 147 155 168 185 165 170 188 166 169 188 181 194 206 216 218 217 216
56 58 53 53 49 43 27 29 33 43 49 52 57 67 77 70 70 73 75 76 84 101 115 119 128 133 138 143 155 148 132 143 168 173 173 217 177 190 195 197 207 209 214
62 64 63 60 55 36 26 24 27 38 53 50 48 46 57 55 51 63 77 77 70 66 71 90 94 101 106 98 99 98 101 109 140 199 175 240 202 197 203 196 192 200 209
67 70 69 65 59 39 25 21 19 51 58 54 51 53 58 48 38 42 66 72 68 57 59 71 74 74 75 58 54 84 129 134 194 229 159 215 228 212 188 170 195 201 210
72 75 74 66 57 39 24 20 13 61 67 63 57 49 49 48 32 40 59 69 76 79 77 81 85 91 91 81 62 42 30 61 139 253 202 204 265 242 204 192 203 208 215
74 79 72 64 58 48 30 25 15 47 70 82 81 69 54 46 36 37 49 59 60 51 71 91 91 117 148 146 145 105 25 26 51 18 340 11 325 326 287 241 191 195 223